Northolt, United Kingdom

9:57 AM BST on March 26, 2017 (GMT +0100)
Northolt Air Base

Weather History for EGWU - November, 2012

Change the Weather History Date:

Friday, November 30, 2012

  Actual Average Record
Temperature  
Mean Temperature 34 °F -  
Max Temperature 41 °F 44 °F 59 °F (2001)
Min Temperature 26 °F 36 °F 21 °F (2016)
Degree Days  
Heating Degree Days 32    
Moisture  
Dew Point 29 °F    
Average Humidity 88    
Maximum Humidity 100    
Minimum Humidity 61    
Precipitation  
Precipitation 0.01 in - - ()
Sea Level Pressure  
Sea Level Pressure 29.88 in    
Wind  
Wind Speed 2 mph ()    
Max Wind Speed 5 mph    
Max Gust Speed -    
Visibility 5.9 miles    
Events Fog    
Averages and records for this station are not official NWS values.
T = Trace of Precipitation, MM = Missing Value Source: Averaged Metar Reports

Daily Weather History Graph

Daily Weather History Graph

Search for Another Location

Airport or City:

Trip Planner

Search our weather history database for the weather conditions in past years. The results will help you decide how hot, cold, wet, or windy it might be!

Date:

Astronomy

Nov. 30, 2012 Rise Set
Actual Time 7:44 AM GMT 3:56 PM GMT
Civil Twilight 7:05 AM GMT 4:35 PM GMT
Nautical Twilight 6:22 AM GMT 5:17 PM GMT
Astronomical Twilight 5:42 AM GMT 5:57 PM GMT
Moon 5:38 PM GMT (11/30) 9:05 AM GMT (11/30)
Length of Visible Light 9h 30m
Length of Day
8h 12m
Full, 97% of the Moon is Illuminated
Nov 30
Full
Dec 6
Last Quarter
Dec 13
New
Dec 20
First Quarter
Dec 28
Full

Hourly Weather History & Observations

Time (GMT) Temp. Windchill Dew Point Humidity Pressure Visibility Wind Dir Wind Speed Gust Speed Precip Events Conditions
12:50 AM 28.4 °F 24.6 °F 26.6 °F 93% 29.86 in 6.2 mi NW 3.5 mph - N/A   Mostly Cloudy
1:50 AM 28.4 °F - 26.6 °F 93% 29.83 in 6.2 mi WSW 1.2 mph - N/A   Partly Cloudy
2:50 AM 28 °F - 27 °F 94% 29.86 in 7 mi Calm Calm - -   Mostly Cloudy
2:50 AM 28.4 °F - 26.6 °F 93% 29.83 in 6.2 mi Calm Calm - N/A   Mostly Cloudy
3:50 AM 28.4 °F - 26.6 °F 93% 29.83 in 6.2 mi Calm Calm - N/A   Mostly Cloudy
4:50 AM 28.4 °F - 26.6 °F 93% 29.83 in 6.2 mi WNW 1.2 mph - N/A   Mostly Cloudy
5:50 AM 29 °F - 28 °F 95% 29.85 in 7 mi WSW 2.3 mph - -   Scattered Clouds
5:50 AM 28.4 °F - 28.4 °F 100% 29.83 in - WSW 2.3 mph - N/A   Clear
6:50 AM 28.4 °F - 26.6 °F 93% 29.83 in 5.0 mi SW 1.2 mph - N/A Fog Fog
7:50 AM 28.4 °F - 28.4 °F 100% 29.86 in 3.7 mi South 1.2 mph - N/A Fog Fog
8:50 AM 28 °F - 27 °F 93% 29.88 in 4 mi WNW 3.5 mph - -   Haze
8:50 AM 28.4 °F 24.6 °F 26.6 °F 93% 29.86 in 3.7 mi WNW 3.5 mph - N/A   Haze
9:50 AM 33.8 °F - 32.0 °F 93% 29.86 in 5.0 mi Calm Calm - N/A   Haze
10:50 AM 37.4 °F - 30.2 °F 75% 29.89 in 6.2 mi NNE 1.2 mph - N/A   Mostly Cloudy
11:50 AM 40 °F - 31 °F 61% 29.89 in 9 mi WSW 3.5 mph - -   Scattered Clouds
11:50 AM 41.0 °F 39.0 °F 32.0 °F 70% 29.86 in 6.2 mi WSW 3.5 mph - N/A   Mostly Cloudy
12:50 PM 41.0 °F 38.0 °F 32.0 °F 70% 29.86 in 6.2 mi SW 4.6 mph - N/A   Mostly Cloudy
1:50 PM 39.2 °F 35.9 °F 32.0 °F 75% 29.86 in 6.2 mi SW 4.6 mph - N/A   Mostly Cloudy
2:50 PM 39 °F - 32 °F 68% 29.88 in 12 mi West 4.6 mph - -   Partly Cloudy
2:50 PM 39.2 °F 35.9 °F 32.0 °F 75% 29.86 in 6.2 mi West 4.6 mph - N/A   Mostly Cloudy
3:50 PM 37.4 °F 34.9 °F 32.0 °F 81% 29.86 in 6.2 mi WNW 3.5 mph - N/A   Mostly Cloudy
4:50 PM 35.6 °F - 32.0 °F 87% 29.89 in 6.2 mi North 2.3 mph - N/A   Mostly Cloudy
5:50 PM 33 °F - 31 °F 88% 29.91 in 11 mi NNW 4.6 mph - -   Scattered Clouds
5:50 PM 33.8 °F 29.6 °F 30.2 °F 87% 29.89 in 6.2 mi NNW 4.6 mph - N/A   Mostly Cloudy
6:50 PM 33.8 °F 30.8 °F 32.0 °F 93% 29.92 in 6.2 mi NW 3.5 mph - N/A   Mostly Cloudy
7:50 PM 33.8 °F - 32.0 °F 93% 29.92 in 6.2 mi WSW 2.3 mph - N/A   Mostly Cloudy
8:50 PM 29 °F - 28 °F 92% 29.95 in 7 mi NW 2.3 mph - -   Clear
8:50 PM 28.4 °F - 28.4 °F 100% 29.92 in - NW 2.3 mph - N/A   Clear
9:50 PM 30.2 °F - 28.4 °F 93% 29.95 in 3.1 mi NNE 1.2 mph - N/A   Unknown
10:50 PM 26.6 °F - 26.6 °F 100% 29.95 in 1.6 mi NW 2.3 mph - N/A   Unknown
11:50 PM 27 °F - 26 °F 97% 29.97 in 3 mi West 2.3 mph - -  
11:50 PM 26.6 °F - 26.6 °F 100% 29.95 in 3.1 mi West 2.3 mph - N/A   Unknown